Fort Lauderdale, FL

7:50 PM EST on December 09, 2019 (GMT -0500)
Fort Lauderdale Executive

Weather History for KFXE - November, 2019

Change the Weather History Date:

Tuesday, November 12, 2019

  Actual Average Record
Temperature  
Mean Temperature 76 °F -  
Max Temperature 84 °F 83 °F 88 °F (1988)
Min Temperature 68 °F 65 °F 49 °F (1962)
Cooling Degree Days 11    
Growing Degree Days 26 (Base 50)    
Moisture  
Dew Point 65 °F    
Average Humidity 70    
Maximum Humidity 87    
Minimum Humidity 46    
Precipitation  
Precipitation 0.00 in - - ()
Sea Level Pressure  
Sea Level Pressure 29.94 in    
Wind  
Wind Speed 3 mph ()    
Max Wind Speed 9 mph    
Max Gust Speed -    
Visibility 10.0 miles    
Events      
Averages and records for this station are not official NWS values.
T = Trace of Precipitation, MM = Missing Value Source: Averaged Metar Reports

Daily Weather History Graph

Daily Weather History Graph

Search for Another Location

Airport or City:

Astronomy

Nov. 12, 2019 Rise Set
Actual Time 6:36 AM EST 5:32 PM EST
Civil Twilight 6:12 AM EST 5:56 PM EST
Nautical Twilight 5:44 AM EST 6:24 PM EST
Astronomical Twilight 5:17 AM EST 6:51 PM EST
Moon 5:56 PM EST (11/12) 6:31 AM EST (11/12)
Length of Visible Light 11h 43m
Length of Day
10h 55m
Full, 100% of the Moon is Illuminated
Nov 12
Full
Nov 19
Last Quarter
Nov 26
New
Dec 4
First Quarter
Dec 12
Full

Hourly Weather History & Observations

Time (EST) Temp. Heat Index Dew Point Humidity Pressure Visibility Wind Dir Wind Speed Gust Speed Precip Events Conditions
12:53 AM 70.0 °F - 63.0 °F 78% 30.00 in 10.0 mi Calm Calm - 0.00 in   Clear
1:53 AM 70.0 °F - 64.0 °F 81% 29.98 in 10.0 mi NNW 4.6 mph - N/A   Partly Cloudy
2:53 AM 68.0 °F - 64.0 °F 87% 29.96 in 10.0 mi Calm Calm - N/A   Partly Cloudy
3:53 AM 70.0 °F - 64.9 °F 84% 29.95 in 10.0 mi NW 3.5 mph - N/A   Scattered Clouds
4:53 AM 71.1 °F - 66.0 °F 84% 29.96 in 10.0 mi North 5.8 mph - N/A   Mostly Cloudy
5:53 AM 71.1 °F - 66.0 °F 84% 29.96 in 10.0 mi Calm Calm - N/A   Mostly Cloudy
6:53 AM 71.1 °F - 66.0 °F 84% 29.97 in 10.0 mi Calm Calm - N/A   Mostly Cloudy
7:53 AM 73.9 °F - 66.9 °F 79% 29.97 in 10.0 mi Calm Calm - N/A   Clear
9:53 AM 80.1 °F 82.3 °F 66.9 °F 64% 29.99 in 10.0 mi SW 5.8 mph - N/A   Partly Cloudy
10:53 AM 82.9 °F 84.0 °F 63.0 °F 51% 29.98 in 10.0 mi Variable 3.5 mph - N/A   Scattered Clouds
11:53 AM 82.9 °F 84.0 °F 63.0 °F 51% 29.96 in 10.0 mi SW 5.8 mph - N/A   Partly Cloudy
12:53 PM 84.9 °F 85.4 °F 62.1 °F 46% 29.93 in 10.0 mi SW 8.1 mph - N/A   Scattered Clouds
1:53 PM 84.0 °F 84.5 °F 62.1 °F 47% 29.91 in 10.0 mi NW 3.5 mph - N/A   Scattered Clouds
2:53 PM 84.0 °F 84.4 °F 61.0 °F 46% 29.89 in 10.0 mi Calm Calm - N/A   Scattered Clouds
3:53 PM 82.9 °F 85.8 °F 68.0 °F 60% 29.88 in 10.0 mi SE 9.2 mph - N/A   Scattered Clouds
4:53 PM 81.0 °F 83.8 °F 68.0 °F 65% 29.89 in 10.0 mi SE 6.9 mph - N/A   Partly Cloudy
5:53 PM 79.0 °F - 68.0 °F 69% 29.90 in 10.0 mi SSE 5.8 mph - N/A   Partly Cloudy
6:53 PM 78.1 °F - 68.0 °F 71% 29.91 in 10.0 mi South 4.6 mph - N/A   Scattered Clouds
7:53 PM 77.0 °F - 68.0 °F 74% 29.93 in 10.0 mi South 4.6 mph - N/A   Scattered Clouds
8:53 PM 78.1 °F - 68.0 °F 71% 29.93 in 10.0 mi SSW 4.6 mph - N/A   Overcast
9:53 PM 73.9 °F - 66.9 °F 79% 29.95 in 10.0 mi West 5.8 mph - N/A   Clear
10:53 PM 73.9 °F - 64.9 °F 73% 29.95 in 10.0 mi WNW 5.8 mph - N/A   Clear
11:53 PM 73.0 °F - 63.0 °F 71% 29.94 in 10.0 mi WNW 5.8 mph - N/A   Clear